カタログに戻る

SCOUT G-1 R/B

運用中PO
NORAD 21528·ROCKET BODY·🇺🇸 United States

打ち上げ Jun 29, 1991 から Vandenberg Space Force Base

Loading…

次のパス (今後24時間)

TLE

最新Source: Space-Track

元期: Sep 14, 2026, 10:38 UTC

1 21528U 91045B   26257.44346347  .00000199  00000-0  74054-4 0  9997
2 21528  89.5287 255.5010 0063603 279.8028 234.9677 14.27678348830291

AllMySatでSCOUT G-1 R/Bをリアルタイム追跡

Download on the App Store